NKS107 KFLL-KEWR

Flight info

Callsign NKS107
Flight time N/A
Altitude 37000
Route FEALX2 ETECK GRUBR Y299 SEELO GARIC Q129 AARNN QUART PHLBO4
Aircraft A321/M-SDE3FGHIRWY/LB1

Departure

Time 2026-05-03 22:56
Airport Fort Lauderdale Hollywood International Airport (KFLL)

Arrival

Time N/A
Airport Newark Liberty International Airport (KEWR)
Time Latitude Longitude Altitude Speed Heading
2026-05-03 21:55 26.07087 -80.14757 13 ft 0 kts 99°
2026-05-03 22:02 26.07087 -80.14759 13 ft 1 kts 99°
2026-05-03 22:03 26.07091 -80.14774 13 ft 2 kts 108°
2026-05-03 22:03 26.07095 -80.14790 13 ft 2 kts 104°
2026-05-03 22:03 26.07097 -80.14801 13 ft 1 kts 101°
2026-05-03 22:03 26.07097 -80.14815 13 ft 1 kts 71°
2026-05-03 22:04 26.07091 -80.14827 13 ft 1 kts 41°
2026-05-03 22:04 26.07080 -80.14834 13 ft 1 kts 11°
2026-05-03 22:04 26.07067 -80.14834 13 ft 1 kts 340°
2026-05-03 22:04 26.07055 -80.14826 13 ft 1 kts 321°
2026-05-03 22:05 26.07051 -80.14822 13 ft 0 kts 315°
2026-05-03 22:06 26.07088 -80.14862 13 ft 10 kts 316°
2026-05-03 22:06 26.07155 -80.14932 13 ft 13 kts 312°
2026-05-03 22:07 26.07152 -80.15031 13 ft 13 kts 266°
2026-05-03 22:07 26.07214 -80.15123 13 ft 15 kts 347°
2026-05-03 22:07 26.07311 -80.15127 13 ft 13 kts
2026-05-03 22:07 26.07405 -80.15126 13 ft 13 kts
2026-05-03 22:08 26.07486 -80.15158 13 ft 13 kts 293°
2026-05-03 22:08 26.07491 -80.15263 13 ft 13 kts 270°
2026-05-03 22:08 26.07492 -80.15372 13 ft 14 kts 271°
2026-05-03 22:08 26.07492 -80.15488 13 ft 14 kts 270°
2026-05-03 22:09 26.07493 -80.15598 12 ft 14 kts 271°
2026-05-03 22:09 26.07494 -80.15713 12 ft 15 kts 270°
2026-05-03 22:09 26.07494 -80.15804 12 ft 3 kts 270°
2026-05-03 22:10 26.07494 -80.15805 12 ft 0 kts 270°
2026-05-03 22:10 26.07494 -80.15818 12 ft 3 kts 270°
2026-05-03 22:10 26.07494 -80.15836 12 ft 0 kts 270°
2026-05-03 22:11 26.07494 -80.15851 12 ft 4 kts 269°
2026-05-03 22:11 26.07494 -80.15897 12 ft 7 kts 270°
2026-05-03 22:12 26.07494 -80.15921 12 ft 0 kts 270°
2026-05-03 22:12 26.07494 -80.15933 12 ft 4 kts 270°
2026-05-03 22:12 26.07495 -80.15962 12 ft 0 kts 271°
2026-05-03 22:18 26.07495 -80.15982 12 ft 6 kts 271°
2026-05-03 22:18 26.07496 -80.16034 12 ft 2 kts 270°
2026-05-03 22:18 26.07496 -80.16036 12 ft 0 kts 270°
2026-05-03 22:20 26.07496 -80.16070 12 ft 8 kts 270°
2026-05-03 22:20 26.07496 -80.16135 12 ft 6 kts 270°
2026-05-03 22:20 26.07496 -80.16166 12 ft 0 kts 270°
2026-05-03 22:24 26.07496 -80.16184 12 ft 3 kts 270°
2026-05-03 22:24 26.07496 -80.16194 12 ft 0 kts 270°
2026-05-03 22:26 26.07496 -80.16211 12 ft 7 kts 270°
2026-05-03 22:26 26.07497 -80.16255 12 ft 1 kts 270°
2026-05-03 22:26 26.07497 -80.16257 12 ft 0 kts 270°
2026-05-03 22:32 26.07497 -80.16262 12 ft 4 kts 270°
2026-05-03 22:32 26.07497 -80.16306 12 ft 6 kts 270°
2026-05-03 22:32 26.07497 -80.16332 12 ft 0 kts 270°
2026-05-03 22:33 26.07497 -80.16338 12 ft 4 kts 270°
2026-05-03 22:33 26.07497 -80.16360 12 ft 0 kts 270°
2026-05-03 22:38 26.07497 -80.16367 12 ft 1 kts 270°
2026-05-03 22:38 26.07497 -80.16399 12 ft 5 kts 270°
2026-05-03 22:38 26.07497 -80.16424 12 ft 0 kts 270°
2026-05-03 22:39 26.07497 -80.16438 12 ft 4 kts 270°
2026-05-03 22:39 26.07497 -80.16476 12 ft 4 kts 270°
2026-05-03 22:39 26.07497 -80.16507 12 ft 4 kts 270°
2026-05-03 22:39 26.07497 -80.16514 12 ft 0 kts 270°
2026-05-03 22:40 26.07497 -80.16517 12 ft 2 kts 270°
2026-05-03 22:40 26.07498 -80.16538 12 ft 0 kts 270°
2026-05-03 22:45 26.07498 -80.16550 12 ft 0 kts 271°
2026-05-03 22:48 26.07499 -80.16601 12 ft 11 kts 271°
2026-05-03 22:48 26.07531 -80.16643 12 ft 4 kts 357°
2026-05-03 22:48 26.07536 -80.16643 12 ft 0 kts
2026-05-03 22:49 26.07546 -80.16643 12 ft 4 kts
2026-05-03 22:49 26.07578 -80.16643 12 ft 5 kts
2026-05-03 22:49 26.07590 -80.16643 12 ft 0 kts
2026-05-03 22:54 26.07617 -80.16643 12 ft 7 kts
2026-05-03 22:55 26.07670 -80.16641 12 ft 7 kts 10°
2026-05-03 22:55 26.07694 -80.16595 12 ft 3 kts 90°
2026-05-03 22:55 26.07694 -80.16592 12 ft 0 kts 90°
2026-05-03 22:56 26.07694 -80.16524 12 ft 36 kts 89°
2026-05-03 22:56 26.07691 -80.15871 13 ft 129 kts 89°
2026-05-03 22:56 26.07682 -80.14616 255 ft 184 kts 89°
2026-05-03 22:56 26.07679 -80.13075 732 ft 223 kts 88°
2026-05-03 22:57 26.07705 -80.11159 992 ft 255 kts 88°
2026-05-03 22:57 26.07734 -80.09177 1307 ft 257 kts 87°
2026-05-03 22:57 26.07757 -80.07171 1812 ft 265 kts 86°
2026-05-03 22:57 26.07785 -80.05138 2737 ft 265 kts 88°
2026-05-03 22:58 26.07816 -80.03093 3522 ft 271 kts 89°
2026-05-03 22:58 26.08016 -80.01009 4246 ft 277 kts 73°
2026-05-03 22:58 26.08838 -79.99081 5022 ft 281 kts 55°
2026-05-03 22:58 26.09990 -79.97302 5808 ft 285 kts 52°
2026-05-03 22:59 26.11192 -79.95528 6549 ft 291 kts 51°
2026-05-03 22:59 26.12424 -79.93696 7282 ft 297 kts 52°
2026-05-03 22:59 26.13651 -79.91846 8030 ft 302 kts 52°
2026-05-03 22:59 26.14899 -79.89946 8755 ft 307 kts 52°
2026-05-03 23:00 26.16157 -79.88024 9455 ft 311 kts 52°
2026-05-03 23:00 26.17442 -79.86061 10161 ft 315 kts 52°
2026-05-03 23:00 26.18739 -79.84077 10638 ft 327 kts 52°
2026-05-03 23:00 26.20119 -79.81965 10966 ft 344 kts 52°
2026-05-03 23:01 26.21553 -79.79768 11462 ft 354 kts 53°
2026-05-03 23:01 26.22997 -79.77554 12109 ft 358 kts 53°
2026-05-03 23:01 26.24457 -79.75308 12738 ft 362 kts 53°
2026-05-03 23:01 26.25935 -79.73038 13357 ft 365 kts 53°
2026-05-03 23:02 26.27432 -79.70735 13973 ft 369 kts 53°
2026-05-03 23:02 26.28982 -79.68443 14564 ft 373 kts 49°
2026-05-03 23:02 26.30686 -79.66260 15137 ft 376 kts 44°
2026-05-03 23:02 26.32507 -79.64143 15663 ft 380 kts 43°
2026-05-03 23:03 26.34368 -79.62019 15943 ft 382 kts 43°
2026-05-03 23:03 26.36212 -79.59914 15976 ft 383 kts 43°
2026-05-03 23:03 26.38071 -79.57789 15969 ft 382 kts 43°
2026-05-03 23:03 26.39938 -79.55645 15973 ft 382 kts 43°
2026-05-03 23:04 26.41786 -79.53521 15979 ft 383 kts 43°
2026-05-03 23:04 26.43647 -79.51376 15974 ft 382 kts 43°
2026-05-03 23:04 26.45490 -79.49250 15976 ft 383 kts 43°
2026-05-03 23:04 26.47348 -79.47106 15983 ft 382 kts 43°
2026-05-03 23:05 26.49181 -79.44990 15982 ft 382 kts 43°
2026-05-03 23:05 26.51026 -79.42860 15980 ft 382 kts 43°
2026-05-03 23:05 26.52874 -79.40723 15982 ft 382 kts 43°
2026-05-03 23:05 26.54812 -79.38656 15983 ft 381 kts 37°
2026-05-03 23:06 26.56876 -79.36872 15978 ft 379 kts 31°
2026-05-03 23:06 26.59116 -79.35276 15981 ft 378 kts 28°
2026-05-03 23:06 26.61351 -79.33767 15981 ft 377 kts 27°
2026-05-03 23:06 26.63613 -79.32252 15980 ft 377 kts 27°
2026-05-03 23:07 26.65866 -79.30739 15984 ft 377 kts 27°
2026-05-03 23:07 26.68109 -79.29223 15984 ft 377 kts 28°
2026-05-03 23:07 26.70344 -79.27707 15986 ft 378 kts 28°
2026-05-03 23:07 26.72617 -79.26163 16003 ft 379 kts 28°
2026-05-03 23:08 26.74876 -79.24626 16333 ft 385 kts 28°
2026-05-03 23:08 26.77163 -79.23065 16992 ft 385 kts 28°
2026-05-03 23:08 26.79450 -79.21506 17583 ft 388 kts 28°
2026-05-03 23:08 26.81777 -79.19917 18110 ft 392 kts 27°
2026-05-03 23:09 26.84124 -79.18314 18611 ft 396 kts 27°
2026-05-03 23:09 26.86486 -79.16702 19112 ft 400 kts 27°
2026-05-03 23:09 26.88854 -79.15085 19594 ft 403 kts 27°
2026-05-03 23:09 26.91253 -79.13446 20066 ft 408 kts 27°
2026-05-03 23:10 26.93710 -79.11764 20516 ft 412 kts 27°
2026-05-03 23:10 26.96172 -79.10076 20964 ft 417 kts 27°
2026-05-03 23:10 26.98651 -79.08378 21424 ft 420 kts 26°
2026-05-03 23:10 27.01157 -79.06659 21890 ft 423 kts 26°
2026-05-03 23:11 27.03676 -79.04934 22310 ft 427 kts 26°
2026-05-03 23:11 27.06224 -79.03187 22745 ft 430 kts 26°
2026-05-03 23:11 27.08778 -79.01434 23186 ft 433 kts 26°
2026-05-03 23:11 27.11367 -78.99659 23585 ft 437 kts 27°
2026-05-03 23:12 27.13971 -78.97870 23986 ft 441 kts 27°
2026-05-03 23:12 27.16573 -78.96081 24393 ft 444 kts 27°
2026-05-03 23:12 27.19209 -78.94267 24779 ft 447 kts 27°
2026-05-03 23:12 27.21881 -78.92426 25160 ft 450 kts 27°
2026-05-03 23:13 27.24551 -78.90585 25556 ft 453 kts 27°
2026-05-03 23:13 27.27270 -78.88711 25936 ft 456 kts 27°
2026-05-03 23:13 27.29953 -78.86858 26302 ft 459 kts 27°
2026-05-03 23:13 27.32691 -78.84966 26693 ft 461 kts 27°
2026-05-03 23:14 27.35438 -78.83071 27030 ft 464 kts 27°
2026-05-03 23:14 27.38200 -78.81252 27333 ft 465 kts 22°
2026-05-03 23:14 27.41199 -78.79861 27680 ft 460 kts 12°
2026-05-03 23:14 27.44298 -78.79046 28040 ft 454 kts
2026-05-03 23:15 27.47415 -78.78557 28364 ft 455 kts 360°
2026-05-03 23:15 27.50593 -78.78130 28672 ft 458 kts 359°
2026-05-03 23:15 27.53777 -78.77705 28979 ft 461 kts 359°
2026-05-03 23:15 27.56969 -78.77268 29298 ft 463 kts 360°
2026-05-03 23:16 27.60145 -78.76820 29575 ft 467 kts 360°
2026-05-03 23:16 27.63411 -78.76350 29862 ft 470 kts 359°
2026-05-03 23:16 27.66653 -78.75879 30136 ft 473 kts 359°
2026-05-03 23:16 27.69913 -78.75404 30399 ft 475 kts 359°
2026-05-03 23:17 27.73209 -78.74921 30674 ft 478 kts 359°
2026-05-03 23:17 27.76534 -78.74434 30902 ft 482 kts 359°
2026-05-03 23:17 27.79882 -78.73942 31150 ft 484 kts 358°
2026-05-03 23:17 27.83230 -78.73447 31456 ft 485 kts 358°
2026-05-03 23:18 27.86572 -78.72958 31690 ft 488 kts 358°
2026-05-03 23:18 27.89957 -78.72461 31946 ft 490 kts 358°
2026-05-03 23:18 27.93353 -78.71960 32245 ft 491 kts 357°
2026-05-03 23:18 27.96720 -78.71459 32601 ft 490 kts 357°
2026-05-03 23:19 28.00104 -78.70956 32916 ft 490 kts 356°
2026-05-03 23:19 28.03462 -78.70459 33309 ft 488 kts 356°
2026-05-03 23:19 28.06837 -78.69960 33791 ft 485 kts 356°
2026-05-03 23:19 28.10179 -78.69468 34121 ft 486 kts 356°
2026-05-03 23:20 28.13542 -78.68973 34463 ft 485 kts 356°
2026-05-03 23:20 28.16852 -78.68486 34828 ft 483 kts 356°
2026-05-03 23:20 28.20226 -78.67986 35169 ft 482 kts 356°
2026-05-03 23:20 28.23546 -78.67494 35469 ft 482 kts 356°
2026-05-03 23:21 28.26849 -78.67007 35678 ft 484 kts 356°
2026-05-03 23:21 28.30210 -78.66512 35837 ft 486 kts 356°
2026-05-03 23:21 28.33574 -78.66016 35993 ft 488 kts 356°
2026-05-03 23:21 28.36969 -78.65511 36248 ft 488 kts 356°
2026-05-03 23:22 28.43677 -78.64513 36651 ft 490 kts 356°
2026-05-03 23:22 28.47084 -78.64011 36761 ft 493 kts 356°
2026-05-03 23:22 28.50480 -78.63502 36976 ft 494 kts 356°
2026-05-03 23:23 28.57328 -78.62484 37063 ft 498 kts 356°
2026-05-03 23:23 28.64228 -78.61450 37067 ft 497 kts 356°
2026-05-03 23:24 28.71088 -78.60425 37069 ft 498 kts 356°
2026-05-03 23:24 28.77931 -78.59398 37073 ft 497 kts 355°
2026-05-03 23:25 28.84828 -78.58367 37073 ft 499 kts 356°
2026-05-03 23:25 28.91726 -78.57334 37077 ft 501 kts 355°
2026-05-03 23:26 28.98659 -78.56290 37078 ft 501 kts 355°
2026-05-03 23:26 29.05513 -78.55254 37086 ft 500 kts 355°
2026-05-03 23:27 29.12468 -78.54209 37086 ft 498 kts 355°
2026-05-03 23:27 29.19334 -78.53174 37093 ft 500 kts 355°
2026-05-03 23:28 29.26207 -78.52134 37100 ft 500 kts 355°
2026-05-03 23:28 29.33155 -78.51085 37101 ft 502 kts 355°
2026-05-03 23:29 29.40066 -78.50035 37100 ft 501 kts 355°
2026-05-03 23:29 29.46939 -78.49194 37105 ft 493 kts 350°
2026-05-03 23:30 29.53691 -78.49249 37111 ft 480 kts 342°
2026-05-03 23:30 29.60330 -78.49947 37109 ft 474 kts 340°
2026-05-03 23:31 29.66873 -78.50691 37118 ft 474 kts 340°
2026-05-03 23:31 29.73479 -78.51425 37119 ft 477 kts 341°
2026-05-03 23:32 29.80078 -78.52141 37127 ft 478 kts 340°
2026-05-03 23:32 29.86731 -78.52863 37126 ft 479 kts 340°
2026-05-03 23:33 29.93347 -78.53580 37133 ft 479 kts 340°
2026-05-03 23:33 29.99997 -78.54301 37130 ft 480 kts 340°
2026-05-03 23:34 30.06664 -78.55027 37138 ft 480 kts 341°
2026-05-03 23:34 30.13364 -78.55563 37139 ft 488 kts 345°
2026-05-03 23:35 30.20242 -78.55228 37140 ft 501 kts 353°